Retour au catalogue

STARLINK-4367

ActifCommunicationsSSO
NORAD 53229·PAYLOAD·🇺🇸 United States

Lancé Jul 22, 2022 depuis Vandenberg Space Force Base

Loading…

Prochains Passages (prochaines 24 heures)

TLE

FraisSource: CelesTrak SupGP

Époque: Sep 15, 2026, 02:28 UTC

1 53229C 22084AS  26258.10326389  .00375680  00000+0  13786-1 0  2584
2 53229  97.2843 313.9817 0001743  85.5651 280.6396 15.27832905    10

Suivez STARLINK-4367 en temps réel avec AllMySat

Download on the App Store